Overview Statistics Trail Chart Weather Telemetry Raw packets
 

This is the latest recevied weather packets stored in our database for station/object G4KVI. If no packets are shown the sender has not sent any weather packets the latest 10 day(s).

<< 50 51 52 53 54 55 56 >>
Time Temp. Humidity Pressure Rain* Wind** Luminosity Snow
1788255605 20° C 67% 1023.7 hPa 0 mm - 504 W/m² -
1788255305 20° C 67% 1023.2 hPa 0 mm - 564 W/m² -
1788255005 20.56° C 67% 1023.1 hPa 0 mm - 458 W/m² -
1788254705 20.56° C 69% 1023.5 hPa 0 mm - 474 W/m² -
1788254408 19.44° C 71% 1023.6 hPa 0 mm - 474 W/m² -
1788254105 19.44° C 71% 1023.5 hPa 0 mm - 454 W/m² -
1788253805 18.33° C 74% 1023.4 hPa 0 mm - 412 W/m² -
1788253525 18.33° C 76% 1023.2 hPa 0 mm - 326 W/m² -
1788253205 18.33° C 75% 1023.5 hPa 0 mm - 263 W/m² -
1788252905 18.33° C 75% 1023.1 hPa 0 mm - 122 W/m² -
1788252605 18.33° C 76% 1023.5 hPa 0 mm - 249 W/m² -
1788252305 17.78° C 76% 1023.5 hPa 0 mm - 194 W/m² -
1788252005 17.78° C 75% 1023 hPa 0 mm - 163 W/m² -
1788251724 17.78° C 75% 1023.4 hPa 0 mm - 219 W/m² -
1788251405 17.22° C 78% 1023.2 hPa 0 mm - 151 W/m² -
1788251105 17.22° C 80% 1023.4 hPa 0 mm - 112 W/m² -
1788250805 16.67° C 80% 1023.1 hPa 0 mm - 118 W/m² -
1788250505 16.67° C 82% 1023.4 hPa 0 mm - 161 W/m² -
1788250205 16.11° C 83% 1023.4 hPa 0 mm - 120 W/m² -
1788249905 15.56° C 82% 1023.5 hPa 0 mm - 109 W/m² -
1788249605 15.56° C 84% 1023.5 hPa 0 mm - 119 W/m² -
1788249305 15.56° C 83% 1023.1 hPa 0 mm - 111 W/m² -
1788249005 15.56° C 83% 1023.2 hPa 0 mm - 129 W/m² -
1788248705 15.56° C 84% 1023 hPa 0 mm - 146 W/m² -
1788248405 16.11° C 85% 1023.4 hPa 0 mm - 145 W/m² -

* Rain latest hour (hover to see other rain measurements)
** Current wind speed in m/s (hover to see current wind gust speed)